Weather History for Gulfport, MS

Change the Weather History Date:

Saturday, November 9, 2013

  Actual Average Record
Temperature  
Mean Temperature 60 °F -  
Max Temperature 75 °F 71 °F 81 °F (1958)
Min Temperature 44 °F 53 °F 29 °F (1991)
Degree Days  
Heating Degree Days 6    
Growing Degree Days 10 (Base 50)    
Moisture  
Dew Point 50 °F    
Average Humidity 71    
Maximum Humidity 90    
Minimum Humidity 50    
Precipitation  
Precipitation 0.00 in - - ()
Sea Level Pressure  
Sea Level Pressure 30.20 in    
Wind  
Wind Speed 3 mph (NE)    
Max Wind Speed 8 mph    
Max Gust Speed -    
Visibility 10 miles    
Events      
Averages and records for this station are not official NWS values.
T = Trace of Precipitation, MM = Missing Value Source: NWS Daily Summary

Daily Weather History Graph

Daily Weather History Graph

Search for Another Location

Airport:

Trip Planner

Search our weather history database for the weather conditions in past years. The results will help you decide how hot, cold, wet, or windy it might be!

Date:

Astronomy

Nov. 09, 2013 Rise Set
Actual Time 6:17 AM CST 5:02 PM CST
Civil Twilight 5:52 AM CST 5:27 PM CST
Nautical Twilight 5:23 AM CST 5:56 PM CST
Astronomical Twilight 4:54 AM CST 6:24 PM CST
Moon 11:58 AM CST (11/9) 11:26 PM CST (11/9)
Length of Visible Light 11h 35m
Length of Day
10h 45m
Waxing Crescent, 44% of the Moon is Illuminated
Nov 9
Waxing Crescent
Nov 9
First Quarter
Nov 17
Full
Nov 25
Last Quarter
Dec 2
New

Hourly Weather History & Observations

Time (CST) Temp. Windchill Dew Point Humidity Pressure Visibility Wind Dir Wind Speed Gust Speed Precip Events Conditions
12:53 AM 46.9 °F - 37.9 °F 71% 30.19 in 10.0 mi Calm Calm - N/A   Clear
1:53 AM 45.0 °F - 39.0 °F 80% 30.18 in 10.0 mi Calm Calm - N/A   Clear
2:53 AM 45.0 °F - 39.0 °F 80% 30.17 in 10.0 mi Calm Calm - N/A   Clear
3:53 AM 44.1 °F 42.5 °F 39.0 °F 82% 30.18 in 10.0 mi NNW 3.5 mph - N/A   Clear
4:53 AM 45.0 °F 43.5 °F 39.0 °F 80% 30.19 in 10.0 mi NNW 3.5 mph - N/A   Clear
5:53 AM 48.0 °F - 39.0 °F 71% 30.19 in 10.0 mi NNE 3.5 mph - N/A   Clear
6:53 AM 48.9 °F - 41.0 °F 74% 30.21 in 10.0 mi North 3.5 mph - N/A   Clear
7:53 AM 55.0 °F - 44.1 °F 67% 30.23 in 10.0 mi North 5.8 mph - N/A   Clear
8:53 AM 62.1 °F - 48.0 °F 60% 30.24 in 10.0 mi NNE 4.6 mph - N/A   Clear
9:53 AM 66.9 °F - 51.1 °F 57% 30.24 in 10.0 mi Variable 3.5 mph - N/A   Clear
10:53 AM 70.0 °F - 53.1 °F 55% 30.23 in 10.0 mi NNE 5.8 mph - N/A   Clear
11:53 AM 73.9 °F - 54.0 °F 50% 30.20 in 10.0 mi Calm Calm - N/A   Clear
12:53 PM 75.0 °F - 55.0 °F 50% 30.17 in 10.0 mi NNE 4.6 mph - N/A   Clear
1:53 PM 73.0 °F - 55.9 °F 55% 30.17 in 10.0 mi SSE 8.1 mph - N/A   Partly Cloudy
2:53 PM 71.1 °F - 57.9 °F 63% 30.17 in 10.0 mi SSE 6.9 mph - N/A   Clear
3:53 PM 70.0 °F - 59.0 °F 68% 30.17 in 10.0 mi SE 8.1 mph - N/A   Clear
4:53 PM 66.9 °F - 59.0 °F 76% 30.17 in 10.0 mi SE 5.8 mph - N/A   Clear
5:53 PM 66.0 °F - 57.9 °F 75% 30.18 in 10.0 mi ESE 3.5 mph - N/A   Overcast
6:53 PM 63.0 °F - 57.9 °F 84% 30.19 in 10.0 mi Calm Calm - N/A   Partly Cloudy
7:53 PM 60.1 °F - 57.0 °F 90% 30.20 in 10.0 mi Calm Calm - N/A   Clear
8:53 PM 62.1 °F - 57.0 °F 84% 30.21 in 10.0 mi ENE 3.5 mph - N/A   Clear
9:53 PM 62.1 °F - 55.0 °F 78% 30.21 in 10.0 mi NNE 3.5 mph - N/A   Partly Cloudy
10:53 PM 62.1 °F - 54.0 °F 75% 30.20 in 10.0 mi ENE 3.5 mph - N/A   Clear
11:53 PM 61.0 °F - 53.1 °F 75% 30.19 in 10.0 mi NNE 4.6 mph - N/A   Clear